Meadville, PA

4:08 AM EDT on July 21, 2017 (GMT -0400)
Port Meadville

Weather History for KGKJ - May, 2013

Change the Weather History Date:

Monday, May 20, 2013

  Actual Average Record
Temperature  
Mean Temperature 72 °F -  
Max Temperature 84 °F 72 °F 86 °F (1962)
Min Temperature 61 °F 46 °F 28 °F (2002)
Cooling Degree Days 6    
Growing Degree Days 22 (Base 50)    
Moisture  
Dew Point 61 °F    
Average Humidity 69    
Maximum Humidity 90    
Minimum Humidity 51    
Precipitation  
Precipitation 0.00 in - - ()
Sea Level Pressure  
Sea Level Pressure 29.97 in    
Wind  
Wind Speed 4 mph (SSW)    
Max Wind Speed 10 mph    
Max Gust Speed -    
Visibility 10 miles    
Events      
Averages and records for this station are not official NWS values.
T = Trace of Precipitation, MM = Missing Value Source: NWS Daily Summary

Daily Weather History Graph

Daily Weather History Graph

Search for Another Location

Airport or City:

Trip Planner

Search our weather history database for the weather conditions in past years. The results will help you decide how hot, cold, wet, or windy it might be!

Date:

Astronomy

May. 20, 2013 Rise Set
Actual Time 5:56 AM EDT 8:38 PM EDT
Civil Twilight 5:24 AM EDT 9:11 PM EDT
Nautical Twilight 4:44 AM EDT 9:51 PM EDT
Astronomical Twilight 3:58 AM EDT 10:37 PM EDT
Moon 3:41 PM EDT (5/20) 2:54 AM EDT (5/20)
Length of Visible Light 15h 46m
Length of Day
14h 42m
Waxing Gibbous, 75% of the Moon is Illuminated
May 20
Waxing Gibbous
May 25
Full
May 31
Last Quarter
Jun 8
New
Jun 16
First Quarter

Hourly Weather History & Observations

Time (EDT) Temp. Heat Index Dew Point Humidity Pressure Visibility Wind Dir Wind Speed Gust Speed Precip Events Conditions
12:53 AM 63.0 °F - 57.9 °F 84% 30.01 in 10.0 mi Variable 3.5 mph - N/A   Clear
1:53 AM 62.1 °F - 57.9 °F 86% 30.01 in 10.0 mi Calm Calm - N/A   Clear
2:53 AM 61.0 °F - 57.9 °F 90% 30.01 in 10.0 mi Variable 3.5 mph - N/A   Clear
3:53 AM 61.0 °F - 57.9 °F 90% 30.01 in 10.0 mi Calm Calm - N/A   Clear
4:53 AM 61.0 °F - 57.9 °F 90% 30.01 in 10.0 mi Variable 3.5 mph - N/A   Clear
5:53 AM 61.0 °F - 57.9 °F 90% 30.03 in 10.0 mi Calm Calm - N/A   Clear
8:53 AM 66.9 °F - 61.0 °F 81% 30.02 in 10.0 mi South 4.6 mph - N/A   Clear
9:53 AM 71.1 °F - 62.1 °F 73% 30.01 in 10.0 mi Variable 6.9 mph - N/A   Clear
10:53 AM 73.9 °F - 64.0 °F 71% 30.00 in 10.0 mi Variable 4.6 mph - N/A   Clear
11:53 AM 75.9 °F - 64.0 °F 67% 30.01 in 10.0 mi South 5.8 mph - N/A   Scattered Clouds
12:53 PM 78.1 °F - 64.0 °F 62% 30.01 in 10.0 mi Variable 5.8 mph - N/A   Mostly Cloudy
1:53 PM 79.0 °F - 64.0 °F 60% 30.00 in 10.0 mi Variable 3.5 mph - N/A   Mostly Cloudy
2:53 PM 81.0 °F 82.2 °F 63.0 °F 54% 29.97 in 10.0 mi Variable 5.8 mph - N/A   Scattered Clouds
3:53 PM 82.9 °F 84.0 °F 63.0 °F 51% 29.94 in 10.0 mi South 10.4 mph - N/A   Clear
4:53 PM 82.9 °F 84.0 °F 63.0 °F 51% 29.92 in 10.0 mi SSW 6.9 mph - N/A   Clear
5:53 PM 82.0 °F 83.1 °F 63.0 °F 52% 29.91 in 10.0 mi South 10.4 mph - N/A   Partly Cloudy
6:53 PM 82.0 °F 83.1 °F 63.0 °F 52% 29.90 in 10.0 mi SSW 6.9 mph - N/A   Clear
7:53 PM 80.1 °F 81.2 °F 62.1 °F 54% 29.90 in 10.0 mi South 4.6 mph - N/A   Clear
8:53 PM 77.0 °F - 61.0 °F 58% 29.92 in 10.0 mi SSW 5.8 mph - N/A   Clear
10:53 PM 73.0 °F - 62.1 °F 68% 29.94 in 10.0 mi Calm Calm - N/A   Clear
11:53 PM 72.0 °F - 63.0 °F 73% 29.93 in 10.0 mi Variable 3.5 mph - N/A   Clear